(141488) = 2002 DK18

Discovered at Socorro on 2002-02-21 by LINEAR.

Orbit

Orbit type: Hungaria

Note: WebGL enabled browser required.

epoch2024-03-31.0
epoch JD2460400.5
perihelion date2021-08-16.52509
perihelion JD2459443.02509
argument of perihelion (°)174.31028
ascending node (°)12.12897
inclination (°)20.71238
eccentricity0.0423188
perihelion distance (AU)1.8774253
Tisserand w.r.t. Jupiter3.8
ΔV w.r.t. Earth (km/sec)10.8
semimajor axis (AU)1.9603865
mean anomaly (°)343.81015
mean daily motion (°/day)0.35908010
aphelion distance (AU)2.043
period (years)2.74
P-vector [x]-0.99234497
P-vector [y]-0.12259075
P-vector [z]-0.01493200
Q-vector [x]0.09863655
Q-vector [y]-0.71401278
Q-vector [z]-0.69314975
absolute magnitude16.41
phase slope0.15
uncertainty0
referenceMPEC 2024-F50
observations used1237
oppositions14
arc length (days)8136
first opposition used2001
last opposition used2024
residual rms (arc-secs)0.73
perturbers coarse indicatorM-v
perturbers precise indicator003Ek
first observation date used2001-12-09.0
last observation date used2024-03-19.0
computer nameMPCLINUX
JD of orbit computation2456966.753512
perihelion JD uncertainty (days)1.2101E-04
argument of perihelion uncertainty (°)4.2411E-05
ascending node uncertainty (°)9.6637E-06
inclination uncertainty (°)7.3002E-06
eccentricity uncertainty 7.1810E-08
perihelion distance uncertainty (AU)1.4184E-07
Minimum Orbit Intersection Distances (in AU)
for orbit epoch: 2460400.5, reference: E2024-GF4
Mercury1.45406
Venus1.15712
Earth0.87818
Mars0.23594
Jupiter2.90849
Saturn7.20675
Uranus16.5776
Neptune27.7984

Observations

1271 total observations over interval: 2001 12 09.45811 – 2024 03 19.404058
These data are available for download (format description).

Date (UT) J2000 RA J2000 Dec Magn Location Ref
2001 12 09.45811 11 06 41.54 +34 33 11.0 19.3   704 – Lincoln Laboratory ETS, New Mexico MPS 57312
2001 12 09.48789 11 06 43.81 +34 33 12.4 20.2   704 – Lincoln Laboratory ETS, New Mexico MPS 57312
2001 12 09.50279 11 06 44.94 +34 33 11.5 19.6   704 – Lincoln Laboratory ETS, New Mexico MPS 57312
2001 12 09.51771 11 06 46.24 +34 33 13.2 20.0   704 – Lincoln Laboratory ETS, New Mexico MPS 57312
2002 02 04.47922 11 16 45.63 +38 30 56.1 19.4 R 699 – Lowell Observatory-LONEOS MPS 57312
2002 02 04.49498 11 16 44.35 +38 31 00.1   699 – Lowell Observatory-LONEOS MPS 57312
2002 02 04.51077 11 16 43.06 +38 31 03.9   699 – Lowell Observatory-LONEOS MPS 57312
2002 02 04.52657 11 16 41.82 +38 31 06.7   699 – Lowell Observatory-LONEOS MPS 57312
2002 02 13.30212 11 03 36.28 +38 52 40.1 19.2 R 678 – Fountain Hills MPS 57312
2002 02 13.31686 11 03 34.72 +38 52 41.0 18.8 R 678 – Fountain Hills MPS 57312
2002 02 13.33171 11 03 33.27 +38 52 41.5 18.9 R 678 – Fountain Hills MPS 57312
2002 02 21.25062 10 49 29.70 +38 42 53.7 18.0   704 – Lincoln Laboratory ETS, New Mexico MPS 54826
2002 02 21.26615 10 49 27.96 +38 42 51.2 18.4   704 – Lincoln Laboratory ETS, New Mexico MPS 54826
2002 02 21.28038 10 49 26.28 +38 42 48.5 18.1   704 – Lincoln Laboratory ETS, New Mexico MPS 54826
2002 02 21.29495 10 49 24.66 +38 42 46.0 18.0   704 – Lincoln Laboratory ETS, New Mexico MPS 54826
2002 02 21.30919 10 49 22.97 +38 42 44.0 18.6   704 – Lincoln Laboratory ETS, New Mexico MPS 54826
2002 02 22.33272 10 47 29.08 +38 39 00.7 18.4   704 – Lincoln Laboratory ETS, New Mexico MPS 54826
2002 02 22.34930 10 47 27.15 +38 38 57.1 18.8   704 – Lincoln Laboratory ETS, New Mexico MPS 54826
2002 02 22.36506 10 47 25.34 +38 38 53.0 18.7   704 – Lincoln Laboratory ETS, New Mexico MPS 54826
2002 02 22.38230 10 47 23.35 +38 38 48.6 18.6   704 – Lincoln Laboratory ETS, New Mexico MPS 54826
2002 02 22.39949 10 47 21.35 +38 38 44.6 18.5   704 – Lincoln Laboratory ETS, New Mexico MPS 54826
2002 03 05.26447 10 27 30.28 +37 23 34.0 18.4   704 – Lincoln Laboratory ETS, New Mexico MPS 57312
2002 03 05.29444 10 27 27.03 +37 23 16.6 18.8   704 – Lincoln Laboratory ETS, New Mexico MPS 57312
2002 03 05.30949 10 27 25.44 +37 23 07.2 18.4   704 – Lincoln Laboratory ETS, New Mexico MPS 57312
2002 03 05.32460 10 27 23.80 +37 22 58.4 18.5   704 – Lincoln Laboratory ETS, New Mexico MPS 57312
2002 03 19.24900 10 06 43.53 +34 20 59.4 18.7   644 – Palomar Mountain/NEAT MPS 54826
2002 03 19.27373 10 06 41.70 +34 20 36.0 18.6   644 – Palomar Mountain/NEAT MPS 54826
2002 03 19.29498 10 06 40.14 +34 20 15.8 18.6   644 – Palomar Mountain/NEAT MPS 54826
2002 03 20.20132 10 05 37.98 +34 05 48.4 18.5   644 – Palomar Mountain/NEAT MPS 54826
2002 03 20.22235 10 05 36.48 +34 05 28.3 18.5   644 – Palomar Mountain/NEAT MPS 54826
2002 03 20.24367 10 05 34.97 +34 05 07.7 18.5   644 – Palomar Mountain/NEAT MPS 54826
2002 03 21.24479 10 04 28.84 +33 48 55.6 18.8   704 – Lincoln Laboratory ETS, New Mexico MPS 57312
2002 03 21.25874 10 04 27.92 +33 48 42.1 18.8   704 – Lincoln Laboratory ETS, New Mexico MPS 57312
2002 03 21.27133 10 04 27.08 +33 48 29.7 19.3   704 – Lincoln Laboratory ETS, New Mexico MPS 57312
2002 03 21.28400 10 04 26.18 +33 48 16.8 19.2   704 – Lincoln Laboratory ETS, New Mexico MPS 57312
2002 03 21.29722 10 04 25.33 +33 48 03.1 19.3   704 – Lincoln Laboratory ETS, New Mexico MPS 57312
2002 04 04.22412 09 54 29.92 +29 39 36.5 18.7   704 – Lincoln Laboratory ETS, New Mexico MPS 57312
2002 04 04.23585 09 54 29.65 +29 39 23.3 19.1   704 – Lincoln Laboratory ETS, New Mexico MPS 57312
2002 04 04.24759 09 54 29.34 +29 39 09.1 18.8   704 – Lincoln Laboratory ETS, New Mexico MPS 57312
2002 04 04.25935 09 54 29.05 +29 38 55.5 18.8   704 – Lincoln Laboratory ETS, New Mexico MPS 57312
2002 04 04.27108 09 54 28.75 +29 38 42.5 19.3   704 – Lincoln Laboratory ETS, New Mexico MPS 57312
2002 04 09.14599 09 53 16.61 +28 05 56.8 18.8 R 699 – Lowell Observatory-LONEOS MPS 57312
2002 04 09.16605 09 53 16.46 +28 05 33.1   699 – Lowell Observatory-LONEOS MPS 57312
2002 04 09.18614 09 53 16.24 +28 05 10.5   699 – Lowell Observatory-LONEOS MPS 57312
2002 04 09.20619 09 53 15.99 +28 04 47.4   699 – Lowell Observatory-LONEOS MPS 57312
2002 04 16.17757 09 53 23.09 +25 50 19.0 18.8   704 – Lincoln Laboratory ETS, New Mexico MPS 57312
2002 04 16.19174 09 53 23.23 +25 50 02.6 19.5   704 – Lincoln Laboratory ETS, New Mexico MPS 57312
2002 04 16.20588 09 53 23.32 +25 49 46.0 19.7   704 – Lincoln Laboratory ETS, New Mexico MPS 57312
2002 04 16.23515 09 53 23.54 +25 49 11.9 20.3   704 – Lincoln Laboratory ETS, New Mexico MPS 57312
2003 09 01.30531 00 48 56.07 -08 31 03.6 19.2   704 – Lincoln Laboratory ETS, New Mexico MPS 85182
2003 09 01.30539 00 48 56.09 -08 31 04.3 18.7   704 – Lincoln Laboratory ETS, New Mexico MPS 85182
2003 09 01.31709 00 48 55.31 -08 31 00.7 19.2   704 – Lincoln Laboratory ETS, New Mexico MPS 85182
2003 09 01.31717 00 48 55.29 -08 31 03.0 19.2   704 – Lincoln Laboratory ETS, New Mexico MPS 85182
2003 09 01.32902 00 48 54.63 -08 31 00.9 19.1   704 – Lincoln Laboratory ETS, New Mexico MPS 85182
2003 09 01.32911 00 48 54.41 -08 30 59.7 19.4   704 – Lincoln Laboratory ETS, New Mexico MPS 85182
2003 09 01.34089 00 48 53.78 -08 30 57.6 19.5   704 – Lincoln Laboratory ETS, New Mexico MPS 85182
2003 09 01.34097 00 48 53.67 -08 30 57.8 19.3   704 – Lincoln Laboratory ETS, New Mexico MPS 85182
2003 09 01.35305 00 48 52.93 -08 30 56.8 19.1   704 – Lincoln Laboratory ETS, New Mexico MPS 85182
2003 09 17.30090 00 27 49.56 -07 45 20.6 18.0   704 – Lincoln Laboratory ETS, New Mexico MPS 85182
2003 09 17.31341 00 27 48.43 -07 45 17.8 18.5   704 – Lincoln Laboratory ETS, New Mexico MPS 85182
2003 09 17.32678 00 27 47.14 -07 45 14.7 18.7   704 – Lincoln Laboratory ETS, New Mexico MPS 85182
2003 09 17.33959 00 27 45.93 -07 45 12.1 18.6   704 – Lincoln Laboratory ETS, New Mexico MPS 85182
2003 09 17.35194 00 27 44.75 -07 45 10.0 18.9   704 – Lincoln Laboratory ETS, New Mexico MPS 85182
2003 09 18.39456 00 26 08.89 -07 41 26.0 19.3   608 – Haleakala-AMOS MPS 86187
2003 09 18.40471 00 26 07.92 -07 41 24.0 19.3   608 – Haleakala-AMOS MPS 86187
2003 09 18.41567 00 26 06.88 -07 41 21.8 19.3   608 – Haleakala-AMOS MPS 86187
2003 09 19.31932 00 24 42.60 -07 38 03.5 18.5 R 699 – Lowell Observatory-LONEOS MPS 85182
2003 09 19.33259 00 24 41.27 -07 38 00.4   699 – Lowell Observatory-LONEOS MPS 85182
2003 09 19.34580 00 24 40.01 -07 37 57.8   699 – Lowell Observatory-LONEOS MPS 85182
2003 09 19.35910 00 24 38.74 -07 37 54.1   699 – Lowell Observatory-LONEOS MPS 85182
2003 09 22.55268 00 19 36.26 -07 25 21.0 19.8   608 – Haleakala-AMOS MPS 85182
2003 09 22.56309 00 19 35.26 -07 25 19.6 19.9   608 – Haleakala-AMOS MPS 85182
2003 09 22.57387 00 19 34.21 -07 25 16.5 19.7   608 – Haleakala-AMOS MPS 85182
2003 09 24.36336 00 16 42.95 -07 17 42.4 17.9   644 – Palomar Mountain/NEAT MPS 85182
2003 09 24.38838 00 16 40.47 -07 17 36.0 17.8   644 – Palomar Mountain/NEAT MPS 85182
2003 09 24.41005 00 16 38.33 -07 17 30.0 18.7   644 – Palomar Mountain/NEAT MPS 85182
2003 09 28.23010 00 10 31.73 -06 59 51.3 18.6   704 – Lincoln Laboratory ETS, New Mexico MPS 86187
2003 09 28.24353 00 10 30.42 -06 59 47.4 18.9   704 – Lincoln Laboratory ETS, New Mexico MPS 86187
2003 09 28.25638 00 10 29.14 -06 59 42.5 19.6   704 – Lincoln Laboratory ETS, New Mexico MPS 86187
2003 09 28.26892 00 10 27.90 -06 59 40.2 18.8   704 – Lincoln Laboratory ETS, New Mexico MPS 86187
2003 09 28.28154 00 10 26.67 -06 59 36.4 18.6   704 – Lincoln Laboratory ETS, New Mexico MPS 86187
2003 10 03.40138 00 02 23.98 -06 32 36.9 20.0   608 – Haleakala-AMOS MPS 86909
2003 10 03.41184 00 02 23.00 -06 32 33.2 19.6   608 – Haleakala-AMOS MPS 86909
2003 10 03.42268 00 02 21.96 -06 32 29.8 19.6   608 – Haleakala-AMOS MPS 86909
2003 10 15.16609 23 45 53.89 -05 16 38.0 18.5 R 699 – Lowell Observatory-LONEOS MPS 87954
2003 10 15.18275 23 45 52.68 -05 16 30.2   699 – Lowell Observatory-LONEOS MPS 87954
2003 10 15.19935 23 45 51.42 -05 16 24.5   699 – Lowell Observatory-LONEOS MPS 87954
2003 10 15.21969 23 45 49.83 -05 16 14.5   699 – Lowell Observatory-LONEOS MPS 87954
